EHI
0 0 0 0 0 0 0 0 0 0 0 0 0 0 0 0 0 0 0 0 0 0 0 0 0 0 0 0 0 0 0 0 0 0 0 0 0 0 0 0 0 0 0 0
0 0 0 0 0 0 0 0 0 0 0 0 0 0 0 0 0 0 0 0 0 0 0 0 0 0 0 0 0 0 0 0 0 0 0 0 0 0 0 0 0 0 0 0
0 0 0 0 0 0 0 0 0 0 0 0 0 0 0 0 0 0 0 0 0 0 0 0 0 0 0 0 0 0 0 0 0 0 0 0 0 0 0 0 0 0 0 0
0 0 0 0 0 0 0 0 0 0 0 0 0 0 0 0 0 0 0 0 0 0 0 0 0 0 0 0 0 0 0 0 0 0 0 0 0 0 0 0 0 0 0 0
0 0 0 0 0 0 0 0 0 0 0 0 0 0 0 0 0 0 0 0 0 0 0 0 0 0 0 0 0 0 0 0 0 0 0 0 0 0 0 0 0 0 0 0
0 0 0 0 0 0 0 0 0 0 0 0 0 0 0 0 0 0 0 0 0 0 0 0 0 0 0 0 0 0 0 0 0 0 0 0 0 0 0 0 0 0 0 0
0 0 0 0 0 0 0 0 0 0 0 0 0 0 0 0 0 0 0 0 0 0 0 0 0 0 0 0 0 0 0 0 0 0 0 0 0 0 0 0 0 0 0 0
0 0 0 0 0 0 0 0 0 0 0 0 0 0 0 0 0 0 0 0 0 0 0 0 0 0 0 0 0 0 0 0 0 0 0 0 0 0 0 0 0 0 0 0
0 0 0 0 0 0 0 0 0 0 0 0 0 0 0 0 0 0 0 0 0 0 0 0 0 0 0 0 0 0 0 0 0 0 0 0 0 0 0 0 0 0 0 0
0 0 0 0 0 0 0 0 0 0 0 0 0 0 0 0 0 0 0 0 0 0 0 0 0 0 0 0 0 0 0 0 0 0 0 0 0 0 0 0 0 0 0 0
0 0 0 0 0 0 0 0 0 0 0 0 0 0 0 0 0 0 0 0 0 0 0 0 0 0 0 0 0 0 0 0 0 0 0 0 0 0 0 0 0 0 0 0
0 0 0 0 0 0 0 0 0 0 0 0 0 0 0 0 0 0 0 0 0 0 0 0 0 0 0 0 0 0 0 0 0 0 0 0 0 0 0 0 0 0 0 0
0 0 0 0 0 0 0 0 0 0 0 0 0 0 0 0 0 0 0 0 0 0 0 0 0 0 0 0 0 0 0 0 0 0 0 0 0 0 0 0 0 0 0 0
0 0 0 0 0 0 0 0 0 0 0 0 0 0 0 0 0 0 0 0 0 0 0 0 0 0 0 0 0 0 0 0 0 0 0 0 0 0 0 0 0 0 0 0
0 0 0 0 0 0 0 0 0 0 0 0 0 0 0 0 0 0 0 0 0 0 0 0 0 0 0 0 0 0 0 0 0 0 0 0 0 0 0 0 0 0 0 0
0 0 0 0 0 0 0 0 0 0 0 0 0 0 0 0 0 0 0 0 0 0 0 0 0 0 0 0 0 0 0 0 0 0 0 0 0 0 0 0 0 0 0 0
0 0 0 0 0 0 0 0 0 0 0 0 0 0 0 0 0 0 0 0 0 0 0 0 0 0 0 0 0 0 0 0 0 0 0 0 0 0 0 0 0 0 0 0
0 0 0 0 0 0 0 0 0 0 0 0 0 0 0 0 0 0 0 0 0 0 0 0 0 0 0 0 0 0 0 0 0 0 0 0 0 0 0 0 0 0 0 0
0 0 0 0 0 0 0 0 0 0 0 0 0 0 0 0 0 0 0 0 0 0 0 0 0 0 0 0 0 0 0 0 0 0 0 0 0 0 0 0 0 0 0 0
0 0 0 0 0 0 0 0 0 0 0 0 0 0 0 0 0 0 0 0 0 0 0 0 0 0 0 0 0 0 0 0 0 0 0 0 0 0 0 0 0 0 0 0
0 0 0 0 0 0 0 0 0 0 0 0 0 0 0 0 0 0 0 0 0 0 0 0 0 0 0 0 0 0 0 0 0 0 0 0 0 0 0 0 0 0 0 0
0 0 0 0 0 0 0 0 0 0 0 0 0 0 0 0 0 0 0 0 0 0 0 0 0 0 0 0 0 0 0 0 0 0 0 0 0 0 0 0 0 0 0 0
0 0 0 0 0 0 0 0 0 0 0 0 0 0 0 0 0 0 0 0 0 0 0 0 0 0 0 0 0 0 0 0 0 0 0 0 0 0 0 0 0 0 0 0
0 0 0 0 0 0 0 0 0 0 0 0 0 0 0 0 0 0 0 0 0 0 0 0 0 0 0 0 0 0 0 0 0 0 0 0 0 0 0 0 0 0 0 0
0 0 0 0 0 0 0 0 0 0 0 0 0 0 0 0 0 0 0 0 0 0 0 0 0 0 0 0 0 0 0 0 0 0 0 0 0 0 0 0 0 0 0 0
0 0 0 0 0 0 0 0 0 0 0 0 0 0 0 0 0 0 0 0 0 0 0 0 0 0 0 0 0 0 0 0 0 0 0 0 0 0 0 0 0 0 0 0
0 0 0 0 0 0 0 0 0 0 0 0 0 0 0 0 0 0 0 0 0 0 0 0 0 0 0 0 0 0 0 0 0 0 0 0 0 0 0 0 0 0 0 0
Wind_Speed
4 3 6 12 16 15 13 10 6 8 7 10 16 15 15 15 15 14 14 14 13 11 9 8 8 7 6 5 3 3 2 1 2 2 2 2 2 3 2 1 2 3 3 3
0 2 5 10 16 14 10 10 9 9 7 13 15 12 13 15 15 14 13 13 13 12 11 10 9 8 8 7 6 5 4 2 2 2 2 2 3 4 3 3 3 3 4 3
2 5 2 8 12 12 8 9 9 9 11 16 14 15 12 12 14 13 11 10 10 10 10 9 9 8 9 8 7 8 7 6 5 3 3 3 4 5 5 5 5 5 4 3
2 5 6 4 4 7 6 5 9 9 11 13 13 12 6 7 11 11 9 8 7 7 6 6 6 7 7 7 8 7 7 8 8 8 7 6 6 7 6 4 4 4 4 3
4 3 1 3 3 4 5 4 8 11 13 15 15 7 6 11 13 9 6 5 5 5 4 5 6 6 6 7 6 7 7 8 8 7 7 7 7 6 5 5 6 6 5 5
4 4 1 5 4 1 0 3 5 9 11 12 12 9 9 14 13 10 7 5 6 6 7 7 8 7 8 7 7 7 7 6 6 6 6 6 6 5 5 4 5 5 6 6
4 3 4 6 3 1 3 4 7 6 7 6 5 4 10 13 9 7 5 5 4 5 4 5 5 5 6 6 5 5 4 4 5 4 4 4 5 4 5 5 6 6 6 5
3 3 6 5 3 4 5 4 4 5 4 5 7 9 9 9 9 8 6 5 4 4 4 4 3 2 3 2 3 2 1 3 3 4 3 3 4 5 5 5 6 6 6 6
5 5 5 4 5 4 4 3 4 4 5 5 6 7 8 8 8 7 6 5 3 3 4 4 2 1 1 2 2 1 1 2 3 3 3 3 4 4 4 4 5 5 5 6
2 4 3 4 4 3 3 5 6 6 6 4 4 6 7 8 8 7 7 5 4 3 4 5 4 2 3 2 2 2 1 1 2 3 3 3 3 3 3 4 4 4 5 5
4 4 3 4 6 5 4 4 4 4 3 4 5 5 5 6 7 7 6 5 5 4 5 6 5 4 3 3 3 2 1 0 1 2 3 2 1 2 2 2 2 2 3 3
8 9 7 7 6 5 4 3 2 3 5 5 4 6 5 6 6 6 7 6 6 6 6 7 6 5 4 3 3 3 2 0 1 2 2 2 1 1 2 1 2 4 5 5
7 7 7 4 4 4 4 3 2 1 2 4 5 4 5 5 5 6 7 7 7 8 7 7 6 6 5 3 4 3 2 1 1 1 2 2 2 2 2 2 2 4 6 8
6 7 4 5 5 5 4 2 1 1 2 3 4 5 5 5 6 7 8 8 9 8 7 6 6 6 5 3 4 3 2 2 3 1 1 1 2 2 2 2 3 3 5 8
8 7 7 6 6 4 3 2 1 2 3 4 4 5 6 6 7 7 7 7 8 7 7 7 7 7 6 3 4 4 3 3 2 2 2 2 2 2 3 3 3 3 4 5
9 5 6 7 7 6 4 3 2 2 3 4 4 5 5 6 6 6 6 6 7 8 9 8 8 9 8 4 4 4 3 6 5 3 2 2 2 2 3 3 3 4 4 4
12 10 9 8 8 7 6 5 4 3 3 4 5 5 5 5 6 7 7 7 5 5 6 7 9 11 9 4 4 4 4 4 6 3 2 2 2 2 2 2 3 3 3 4
13 13 11 11 9 8 7 6 5 4 4 4 5 3 4 4 5 7 8 8 6 6 5 7 9 11 9 3 3 4 4 4 3 3 3 3 3 3 3 2 3 3 2 3
9 9 9 9 9 8 6 5 5 4 3 3 2 2 3 3 4 5 6 7 7 8 9 10 16 11 9 4 2 3 4 5 4 3 2 4 4 3 3 3 3 2 2 2
9 8 9 8 7 6 6 5 4 3 3 2 2 2 3 4 4 5 5 5 4 5 7 10 9 7 7 4 0 2 3 4 4 4 3 3 3 3 3 3 3 2 2 1
10 9 9 9 7 6 6 5 4 4 3 2 2 3 4 5 5 4 4 4 5 6 7 10 6 5 5 5 2 2 3 3 4 4 3 3 3 3 3 3 2 2 1 1
9 10 10 9 8 6 5 5 4 4 3 3 3 3 3 5 5 5 5 5 6 10 7 5 5 7 10 7 2 2 3 3 3 3 3 4 4 4 3 3 2 2 2 2
8 9 9 9 9 7 4 4 5 4 4 4 4 4 3 4 3 3 6 5 6 11 8 5 9 14 13 2 2 3 3 4 3 3 3 4 4 4 3 3 2 2 2 2
8 9 9 7 6 6 5 6 6 4 4 4 4 4 3 3 4 4 5 10 13 13 7 9 13 13 6 2 3 3 3 3 3 3 3 3 3 4 4 3 3 2 2 3
8 8 8 8 7 7 7 6 4 4 4 4 5 5 4 4 4 5 5 7 12 12 7 10 13 11 3 2 3 4 4 4 4 4 3 3 4 4 4 4 3 3 2 3
8 8 8 9 8 6 5 5 4 4 4 4 4 4 3 3 4 5 4 6 9 10 8 6 6 6 3 2 3 4 4 4 4 4 4 4 4 4 4 4 5 3 3 3
5 5 5 4 5 5 5 5 5 5 5 5 5 4 4 3 3 4 5 5 5 6 6 6 5 4 3 2 2 3 4 4 4 4 4 4 4 4 5 6 4 4 4 4
Wind_Direction
114 94 37 29 22 26 34 28 18 347 341 346 344 341 347 355 1 14 20 26 29 34 37 36 40 44 50 66 99 126 126 120 249 282 312 338 41 56 43 345 283 265 258 252
235 294 28 29 16 12 18 12 1 357 359 342 338 347 357 2 6 13 16 18 17 20 26 29 32 40 49 47 42 55 65 22 325 313 333 16 34 28 13 344 312 297 281 263
338 322 30 19 360 356 2 19 1 357 341 332 342 343 346 354 2 4 6 8 11 13 15 16 17 24 35 33 39 48 46 30 12 8 24 26 20 20 9 352 337 323 313 298
56 44 47 309 322 345 346 17 7 352 343 341 333 315 309 1 360 355 354 358 3 6 10 11 18 26 30 30 34 41 41 35 29 34 40 39 39 32 15 2 357 345 342 351
92 84 25 326 354 3 346 339 355 349 349 348 337 334 358 359 354 342 340 348 353 360 8 17 22 25 41 34 31 38 36 33 28 31 35 35 34 25 15 21 25 23 20 21
104 101 211 260 279 263 198 313 337 343 345 347 355 18 340 333 335 335 342 354 4 4 11 13 4 11 31 24 24 22 19 23 25 31 37 35 30 26 20 28 28 28 29 25
114 133 241 246 271 113 118 267 303 314 318 330 334 274 286 309 323 333 337 347 4 13 6 348 348 15 29 18 9 353 6 28 32 35 46 40 37 31 26 28 29 26 23 17
138 145 233 236 164 163 210 244 275 287 292 304 298 296 306 322 336 344 342 338 354 358 340 326 330 10 21 350 313 316 17 47 40 35 39 42 48 40 34 32 30 19 11 7
185 206 233 216 209 215 204 245 267 266 284 292 293 304 314 323 332 333 331 325 331 337 322 322 330 286 290 282 254 244 31 34 23 24 32 36 46 43 38 36 34 20 8 1
216 259 250 244 250 253 233 241 264 276 283 282 291 305 317 325 329 329 328 329 328 333 328 319 319 297 250 238 193 186 201 356 6 6 5 15 28 35 42 35 30 16 3 356
221 247 248 247 237 244 261 268 288 314 311 311 318 321 317 315 315 321 324 324 328 316 297 291 298 298 275 230 183 181 196 268 355 358 352 353 26 42 43 48 21 353 341 341
206 204 182 212 223 222 225 235 275 324 335 333 323 311 313 311 308 314 318 319 324 320 303 291 288 283 277 235 200 188 193 181 25 2 357 7 30 62 49 37 344 334 340 350
188 175 179 196 201 205 202 204 216 246 304 316 319 313 316 311 308 316 319 322 320 312 301 292 284 278 277 244 210 200 193 168 113 40 25 17 32 46 26 352 317 314 335 345
158 134 157 190 196 200 190 174 153 339 330 317 311 318 323 320 320 331 332 325 317 313 313 308 298 293 288 252 208 202 184 160 141 111 71 56 57 51 46 27 4 348 348 3
181 172 170 174 175 180 176 163 143 327 324 325 321 326 331 334 329 328 328 331 327 328 337 344 339 325 316 263 198 186 167 153 141 130 112 101 78 60 55 50 38 14 5 5
176 166 152 158 173 179 178 185 206 275 299 301 308 318 321 321 319 321 332 349 352 340 338 343 339 325 318 281 191 168 164 163 145 129 115 108 90 74 62 55 49 44 40 22
161 176 177 180 187 191 193 193 201 234 269 283 292 304 318 328 335 339 341 341 338 322 320 332 329 326 317 277 186 157 144 146 136 117 117 123 116 104 90 73 62 66 58 50
188 187 179 178 180 190 200 202 208 226 245 269 293 310 333 340 336 329 329 331 336 339 340 338 336 337 330 294 175 143 136 133 130 130 129 128 128 129 122 103 88 88 73 58
186 178 176 177 180 182 192 203 215 225 253 272 285 304 309 314 317 320 328 341 347 343 336 334 338 347 342 328 154 133 137 137 134 136 138 134 126 132 136 131 123 118 109 86
181 177 176 179 178 179 192 207 213 230 249 251 268 300 319 323 325 326 331 326 302 289 304 319 327 332 336 330 224 150 152 150 148 146 140 133 137 145 152 150 147 151 154 145
179 175 175 178 186 195 199 198 200 225 246 248 262 282 299 310 320 323 323 313 298 307 314 320 324 315 322 317 262 176 167 162 158 155 150 146 147 154 163 167 166 168 169 159
179 177 179 178 182 198 206 196 201 221 244 255 264 275 299 312 322 318 293 269 284 312 317 303 303 306 318 313 219 187 176 171 167 161 156 156 160 165 169 170 173 179 174 156
179 179 178 179 185 194 193 195 203 214 229 235 241 253 268 281 286 292 298 293 299 310 313 295 304 313 315 292 178 177 175 173 177 179 175 169 169 171 171 173 174 171 167 151
180 180 182 178 166 171 200 215 209 213 223 234 237 235 238 274 289 266 257 297 310 313 307 303 312 319 314 177 165 168 176 178 180 185 185 177 170 166 166 165 166 170 163 146
184 178 168 163 175 198 212 211 205 216 222 238 251 246 229 217 240 277 297 302 309 315 310 312 323 329 317 193 171 171 179 187 184 181 188 184 176 167 165 165 168 175 164 146
185 187 188 190 193 195 193 189 201 217 212 230 250 244 232 231 246 268 285 296 303 309 310 306 312 321 301 245 196 181 180 188 189 185 187 185 178 169 167 171 171 169 164 154
191 192 188 197 206 195 186 186 201 219 216 215 234 240 226 229 247 271 288 298 306 309 308 306 306 309 303 275 242 207 187 184 186 186 182 180 177 178 178 174 168 165 165 164